TIANTONG-1 1

Last updated on Tue Oct 08 2024 00:02:40 GMT+0000 (Coordinated Universal Time)

1 41725U 16048A 24281.52790804 -.00000307 00000+0 00000+0 0 9999 2 41725 2.7845 32.8705 0002726 263.0914 12.2205 1.00273349 30075
UTC large
Height (km)
Speed (km/s)
/
Latitude / Longitude
Inclination (degrees)
Orbital Period (minutes)
Azimuth
Elevation
Range (km)
Doppler Factor

Next 0 passes for location: London (51.5072 / 0.1276)

Sorry there are no passes over London.